Probability
0 0 0 0 0 0 0 0 0 0 0 0 0 0 0 0 0 3 10 52 77 97 100 100 100 100 100 100 100 100 100 100 100 100 100 100 100 100 100 100 100 100 100 100 100 100 100 100 100
0 0 0 0 0 0 0 0 0 0 0 0 0 0 10 16 26 55 71 71 87 97 100 100 100 100 100 100 100 100 100 100 100 100 100 100 100 100 100 100 100 100 100 100 100 100 100 100 100
0 0 0 0 0 0 0 0 0 0 0 0 0 16 19 19 39 71 84 84 87 97 100 100 100 100 100 100 100 100 100 100 100 100 100 100 100 100 100 100 100 100 100 100 100 100 100 100 100
0 0 0 0 0 0 0 0 0 0 0 0 13 19 19 29 55 77 87 87 87 100 100 100 100 100 100 100 100 100 100 100 100 100 100 100 100 100 100 100 100 100 100 97 97 97 97 94 94
0 0 0 0 0 0 0 0 0 0 0 0 13 19 23 61 65 77 90 90 84 100 100 100 100 100 100 100 100 100 100 100 100 100 100 100 100 100 100 100 100 97 97 97 97 94 94 94 94
0 0 0 0 0 0 0 0 0 0 0 6 10 19 45 65 77 84 84 87 90 100 100 100 100 100 100 100 100 100 100 100 100 100 100 100 100 100 100 97 97 97 97 90 90 84 81 81 81
0 0 0 0 0 0 0 0 0 0 0 0 6 16 55 74 81 90 84 90 94 100 100 100 100 100 100 100 100 100 100 100 100 100 100 100 100 97 97 97 97 97 87 81 74 77 71 65 61
0 0 0 0 0 0 0 0 0 0 0 3 10 19 48 74 84 90 87 94 97 100 100 100 100 100 100 100 100 100 100 100 100 100 100 100 100 97 97 97 97 87 77 77 68 65 61 58 58
0 0 0 0 0 0 0 0 0 0 0 3 10 23 42 84 87 84 87 90 94 94 94 97 97 100 100 100 100 100 100 100 100 100 100 100 97 94 94 90 87 81 74 65 58 58 68 68 61
0 0 0 0 0 0 0 0 0 0 0 3 10 23 65 77 84 84 87 90 90 90 87 90 94 97 97 97 100 100 100 100 100 100 97 94 81 81 84 84 90 84 77 71 74 74 81 61 29
0 0 0 0 0 0 0 0 0 0 0 6 10 26 61 84 77 84 90 90 87 84 84 87 87 87 87 90 97 100 100 97 97 94 94 71 65 65 74 55 74 81 84 71 65 58 48 39 32
0 0 0 0 0 0 0 0 3 0 0 3 10 29 55 74 77 74 71 81 84 84 84 84 87 87 84 87 94 94 94 97 90 87 77 61 45 39 39 39 48 61 58 48 42 26 26 19 16
0 0 0 3 3 3 3 0 0 0 3 10 29 39 52 68 71 65 71 74 77 77 77 81 81 77 77 81 81 87 87 84 71 77 61 45 29 26 23 19 29 35 35 29 23 16 13 13 13
0 0 0 3 3 3 3 0 0 0 3 16 29 39 45 48 58 58 65 68 71 71 68 71 71 74 71 77 74 74 68 55 55 48 52 35 19 10 6 3 13 19 19 23 19 10 6 6 3
0 0 0 3 3 3 0 0 0 0 6 16 23 26 35 35 45 48 55 55 55 61 55 61 65 65 68 58 52 42 39 32 32 29 26 32 13 0 0 0 0 13 6 6 10 6 0 0 0
0 0 0 0 0 0 0 3 6 0 3 6 16 26 26 29 42 39 48 42 35 39 39 48 58 48 45 42 32 26 23 16 13 6 13 13 10 3 0 0 0 6 3 3 3 0 0 0 0
0 0 0 0 0 3 0 3 6 0 6 10 16 13 29 29 26 35 32 26 29 32 35 35 39 39 35 32 26 13 6 6 3 3 6 10 13 6 3 3 3 0 0 0 0 0 0 0 0
0 0 0 3 0 0 0 0 0 0 3 13 16 19 16 16 19 23 19 16 16 19 23 29 23 16 16 16 10 3 0 0 0 3 0 0 0 10 0 0 0 0 0 0 0 0 0 0 0
0 0 3 3 0 0 0 0 10 0 3 6 13 13 13 10 6 6 16 13 10 13 13 19 10 13 13 6 10 6 3 0 0 0 0 3 0 3 3 0 0 0 0 0 0 0 0 0 0
0 0 3 3 0 0 0 6 10 6 6 6 6 10 10 6 6 6 10 6 13 16 10 6 6 6 6 3 0 3 3 3 0 0 0 0 3 0 0 0 0 0 0 0 0 0 0 0 0
0 0 0 0 3 0 0 3 3 6 6 6 3 3 6 3 6 6 6 6 10 10 6 10 6 6 3 0 0 0 3 3 0 0 0 0 0 0 0 0 0 0 0 0 0 0 0 0 0
0 0 3 3 0 0 0 0 0 6 0 3 0 0 3 3 3 3 3 3 3 6 6 6 6 6 0 0 0 0 0 0 0 0 0 0 0 0 0 0 0 0 0 0 0 0 0 0 0
0 0 0 0 0 0 0 0 0 3 0 3 3 3 3 3 3 0 0 0 3 3 3 3 3 6 0 0 0 0 0 0 0 0 0 0 0 0 0 0 0 0 0 0 0 0 0 0 0
0 0 0 0 0 0 0 0 0 0 0 0 3 0 0 0 0 0 0 0 3 3 3 3 3 0 0 0 0 0 0 0 0 0 0 0 0 0 0 0 0 0 0 0 0 0 0 0 0
0 0 0 0 0 0 0 0 0 6 0 0 0 0 0 0 0 0 0 0 0 3 3 3 3 0 0 0 0 0 0 0 0 0 0 0 0 0 0 0 0 0 0 0 0 0 0 0 0
0 0 0 0 0 0 0 0 3 0 0 0 0 0 0 0 0 0 0 0 0 0 3 3 3 0 0 0 0 0 0 0 0 0 0 0 0 0 0 0 0 0 0 0 0 0 0 0 0
0 0 0 0 0 0 0 3 6 3 0 0 0 0 0 0 0 0 0 0 0 0 3 0 0 0 0 0 0 0 0 0 0 0 0 0 0 0 0 0 0 0 0 0 0 0 0 0 0
0 0 0 0 0 0 0 0 0 3 0 0 0 0 0 0 0 0 0 0 0 0 0 0 0 0 0 0 0 0 0 0 0 0 0 0 0 0 0 0 0 0 0 0 0 0 0 0 0
0 0 0 0 0 0 0 0 0 0 0 0 0 0 0 0 0 0 0 0 0 0 0 0 0 0 0 0 0 0 0 0 0 0 0 0 0 0 0 0 0 0 0 0 0 0 0 0 0
0 0 0 0 0 0 0 0 0 0 0 0 0 0 0 0 0 0 0 0 0 0 0 0 0 0 0 0 0 0 0 0 0 0 0 0 0 0 0 0 0 0 0 0 0 0 0 0 0
Height
5864 5866 5867 5868 5870 5871 5872 5872 5873 5873 5873 5875 5876 5876 5877 5878 5879 5882 5881 5880 5880 5882 5884 5885 5887 5888 5889 5889 5890 5891 5892 5893 5895 5896 5897 5897 5898 5899 5899 5900 5900 5900 5900 5900 5899 5898 5898 5898 5897
5861 5862 5864 5865 5866 5868 5870 5869 5870 5870 5871 5872 5873 5874 5874 5875 5876 5876 5877 5878 5878 5880 5882 5883 5885 5886 5887 5887 5888 5889 5890 5891 5892 5893 5894 5895 5896 5897 5897 5898 5898 5898 5898 5898 5898 5897 5897 5897 5897
5858 5858 5860 5861 5863 5866 5867 5866 5866 5867 5868 5869 5871 5871 5872 5873 5873 5874 5875 5876 5876 5878 5879 5881 5882 5883 5884 5885 5886 5886 5887 5889 5890 5891 5892 5893 5893 5894 5895 5895 5895 5896 5896 5896 5896 5896 5896 5895 5895
5854 5855 5856 5858 5860 5863 5863 5863 5863 5863 5864 5866 5868 5869 5869 5870 5870 5871 5872 5873 5874 5875 5876 5878 5879 5881 5881 5882 5883 5884 5885 5886 5887 5888 5889 5890 5891 5891 5892 5892 5893 5893 5894 5894 5894 5894 5894 5894 5895
5849 5850 5851 5853 5857 5859 5860 5859 5859 5860 5861 5863 5865 5866 5867 5868 5868 5868 5869 5871 5872 5873 5874 5875 5876 5878 5879 5879 5880 5881 5882 5883 5884 5885 5886 5887 5888 5889 5889 5890 5890 5891 5891 5892 5892 5893 5893 5893 5893
5845 5846 5847 5849 5853 5855 5855 5855 5855 5856 5857 5859 5861 5864 5865 5866 5865 5866 5868 5869 5870 5870 5871 5872 5873 5874 5875 5876 5877 5878 5879 5880 5881 5882 5883 5884 5885 5886 5887 5887 5888 5888 5889 5890 5890 5891 5891 5892 5892
5840 5841 5842 5845 5848 5850 5851 5850 5850 5851 5852 5855 5858 5861 5862 5863 5863 5864 5865 5866 5867 5867 5868 5869 5870 5871 5872 5873 5874 5875 5876 5877 5878 5879 5880 5881 5883 5884 5885 5885 5886 5886 5887 5887 5888 5889 5889 5890 5890
5834 5836 5837 5840 5842 5844 5845 5844 5845 5846 5848 5850 5854 5858 5860 5860 5861 5862 5862 5863 5864 5864 5864 5865 5866 5867 5868 5870 5871 5871 5872 5874 5875 5876 5877 5879 5880 5881 5882 5883 5883 5884 5885 5885 5886 5887 5887 5888 5888
5829 5832 5833 5834 5835 5837 5837 5838 5839 5840 5843 5846 5849 5854 5856 5857 5858 5859 5860 5860 5861 5861 5862 5862 5863 5864 5865 5866 5867 5868 5869 5871 5872 5873 5875 5876 5877 5878 5879 5880 5881 5881 5882 5883 5884 5884 5885 5886 5886
5824 5826 5827 5827 5828 5830 5831 5832 5833 5835 5838 5841 5845 5849 5852 5854 5855 5856 5856 5857 5858 5858 5858 5859 5860 5861 5862 5863 5864 5865 5866 5867 5868 5870 5871 5872 5874 5875 5876 5877 5878 5878 5879 5880 5881 5882 5883 5883 5884
5819 5820 5821 5821 5822 5823 5825 5827 5828 5830 5833 5836 5840 5844 5847 5850 5852 5853 5853 5854 5854 5855 5855 5855 5856 5857 5858 5859 5860 5861 5862 5864 5865 5866 5867 5869 5870 5871 5872 5874 5874 5875 5876 5877 5878 5879 5880 5880 5881
5814 5815 5815 5816 5816 5818 5820 5821 5823 5825 5829 5831 5835 5839 5843 5846 5848 5849 5850 5850 5851 5851 5851 5851 5852 5853 5854 5855 5857 5858 5858 5859 5860 5862 5863 5865 5866 5868 5869 5870 5871 5872 5873 5874 5874 5875 5876 5877 5878
5809 5809 5810 5811 5811 5812 5814 5816 5817 5820 5823 5826 5829 5833 5838 5841 5843 5845 5845 5846 5846 5847 5847 5847 5848 5849 5850 5851 5853 5854 5855 5855 5856 5858 5859 5860 5862 5863 5865 5866 5867 5868 5869 5870 5870 5871 5872 5873 5874
5803 5803 5804 5805 5805 5806 5808 5810 5812 5815 5817 5820 5824 5828 5832 5836 5839 5841 5842 5842 5842 5842 5842 5843 5844 5845 5846 5847 5848 5849 5851 5852 5853 5854 5855 5857 5858 5859 5861 5862 5863 5864 5865 5866 5867 5867 5868 5869 5869
5796 5797 5799 5799 5799 5800 5801 5804 5806 5808 5811 5814 5818 5822 5827 5830 5833 5835 5837 5837 5838 5837 5837 5838 5839 5841 5842 5842 5843 5844 5845 5847 5849 5850 5851 5852 5854 5855 5857 5858 5859 5860 5861 5862 5862 5863 5864 5864 5864
5789 5791 5792 5792 5792 5793 5796 5798 5800 5801 5805 5808 5812 5816 5820 5824 5828 5830 5832 5833 5833 5833 5833 5834 5835 5836 5836 5836 5837 5839 5840 5842 5844 5845 5846 5848 5849 5851 5852 5853 5854 5855 5856 5857 5858 5858 5859 5859 5859
5783 5784 5785 5786 5786 5786 5788 5791 5794 5795 5798 5802 5805 5809 5813 5818 5821 5824 5826 5828 5828 5829 5830 5831 5831 5831 5831 5831 5833 5834 5836 5838 5839 5840 5842 5843 5844 5846 5847 5848 5849 5850 5851 5851 5852 5853 5853 5853 5853
5777 5778 5779 5780 5780 5781 5782 5784 5788 5790 5792 5795 5798 5802 5806 5811 5815 5818 5821 5822 5823 5824 5825 5826 5826 5826 5826 5825 5826 5829 5830 5832 5833 5835 5836 5837 5839 5840 5842 5843 5843 5844 5845 5846 5846 5847 5847 5847 5847
5772 5772 5773 5775 5774 5775 5777 5779 5782 5784 5786 5789 5792 5796 5800 5804 5808 5812 5815 5817 5818 5819 5820 5820 5820 5821 5821 5821 5821 5822 5824 5826 5827 5829 5830 5832 5833 5835 5836 5837 5838 5839 5839 5840 5840 5841 5841 5841 5840
5767 5768 5769 5770 5770 5771 5772 5774 5777 5779 5781 5784 5787 5790 5794 5798 5802 5806 5809 5811 5813 5814 5814 5815 5815 5816 5817 5816 5816 5816 5817 5819 5821 5823 5825 5826 5828 5829 5831 5831 5832 5833 5834 5834 5834 5835 5834 5834 5834
5763 5764 5764 5766 5766 5767 5768 5770 5772 5774 5776 5779 5782 5785 5788 5792 5796 5800 5803 5805 5806 5808 5809 5810 5809 5810 5811 5811 5810 5810 5811 5813 5815 5817 5819 5821 5823 5824 5825 5825 5826 5827 5828 5828 5828 5827 5827 5827 5826
5760 5760 5761 5762 5763 5764 5765 5766 5769 5770 5773 5775 5778 5780 5783 5787 5790 5793 5796 5799 5800 5802 5803 5804 5804 5805 5805 5805 5804 5804 5805 5807 5809 5811 5813 5815 5816 5817 5818 5819 5820 5821 5821 5821 5821 5820 5820 5819 5819
5757 5757 5758 5759 5760 5761 5762 5763 5766 5767 5769 5772 5774 5776 5779 5782 5785 5787 5790 5793 5795 5796 5798 5799 5799 5799 5799 5799 5799 5799 5800 5802 5804 5805 5807 5809 5810 5811 5812 5812 5813 5814 5814 5814 5813 5813 5812 5812 5811
5754 5755 5755 5756 5757 5758 5759 5760 5762 5764 5766 5768 5770 5772 5775 5777 5780 5782 5784 5786 5788 5790 5792 5793 5793 5794 5794 5795 5795 5795 5796 5797 5799 5800 5801 5802 5803 5804 5805 5805 5806 5806 5806 5806 5806 5806 5805 5804 5803
5752 5753 5754 5754 5755 5756 5757 5758 5760 5761 5762 5764 5766 5768 5770 5773 5775 5776 5778 5780 5782 5784 5785 5787 5787 5788 5789 5790 5790 5790 5791 5792 5793 5794 5795 5796 5797 5797 5798 5799 5799 5799 5799 5798 5798 5797 5797 5796 5794
5750 5752 5753 5753 5754 5754 5755 5755 5758 5758 5758 5760 5762 5764 5766 5768 5769 5771 5772 5774 5776 5778 5779 5780 5781 5783 5784 5785 5784 5785 5786 5787 5787 5788 5789 5790 5790 5791 5791 5792 5792 5791 5791 5790 5790 5789 5788 5786 5785
5748 5749 5751 5751 5751 5752 5752 5753 5754 5754 5755 5756 5757 5759 5761 5762 5764 5765 5767 5768 5770 5771 5773 5774 5776 5777 5778 5779 5779 5779 5780 5781 5781 5782 5783 5783 5783 5784 5784 5783 5783 5783 5782 5782 5781 5780 5778 5776 5774
5747 5748 5749 5749 5749 5750 5751 5751 5752 5752 5752 5752 5753 5754 5755 5757 5758 5759 5761 5763 5764 5766 5767 5768 5769 5770 5772 5773 5773 5774 5774 5774 5775 5775 5775 5775 5776 5776 5776 5775 5775 5774 5773 5772 5771 5769 5768 5766 5764
5746 5746 5746 5747 5748 5748 5748 5751 5749 5749 5749 5748 5748 5749 5750 5751 5752 5754 5755 5757 5758 5759 5761 5762 5763 5764 5765 5766 5767 5767 5767 5768 5768 5768 5768 5768 5768 5767 5767 5767 5766 5765 5763 5762 5760 5758 5756 5754 5752
5744 5744 5745 5746 5746 5746 5746 5750 5747 5746 5746 5746 5745 5745 5746 5747 5748 5749 5750 5750 5752 5753 5755 5756 5757 5758 5758 5759 5759 5760 5760 5760 5760 5760 5760 5760 5759 5759 5758 5758 5756 5755 5753 5752 5750 5747 5745 5743 5740
Wind_Speed
22 20 20 19 18 17 16 18 20 21 21 20 18 16 15 14 12 8 6 7 7 7 6 6 7 8 8 8 8 7 7 7 7 8 8 8 9 9 9 10 10 10 11 11 11 10 9 8 8
25 23 23 22 20 17 16 19 21 22 22 20 18 17 16 15 13 10 9 8 8 7 8 8 9 9 9 9 9 9 9 9 9 9 9 10 10 11 11 11 11 11 10 10 9 9 8 7 6
26 26 26 24 21 17 17 20 22 23 23 21 19 18 16 15 15 11 10 9 8 8 8 9 10 11 11 10 11 11 11 11 11 11 11 12 12 12 12 11 11 10 10 9 8 7 7 6 5
27 28 28 26 22 19 20 22 23 24 24 23 21 19 17 16 15 12 11 11 10 9 8 9 10 11 12 12 12 12 12 13 13 13 13 13 13 13 12 12 11 10 9 8 7 6 6 6 5
28 29 30 27 23 22 23 24 26 26 26 24 22 21 18 17 14 12 12 13 12 10 9 10 10 12 12 13 13 14 14 14 14 14 14 15 14 13 13 12 11 10 9 8 7 6 6 5 5
29 30 30 28 25 25 26 27 29 28 28 27 24 21 19 17 14 14 13 12 11 11 11 11 11 12 12 13 14 15 15 15 15 15 15 15 15 14 13 12 12 11 10 9 8 7 6 5 5
28 29 29 28 27 27 28 30 31 31 30 29 26 22 20 19 16 13 13 12 11 11 11 11 12 12 12 13 14 15 15 15 15 15 15 15 15 14 13 13 12 11 10 9 8 8 7 6 6
26 27 27 27 27 27 30 33 34 34 32 30 27 23 22 20 18 16 15 14 13 13 12 11 11 12 12 12 13 14 15 15 16 16 16 15 15 14 14 13 13 12 11 10 9 8 8 7 7
25 26 24 25 27 29 32 35 36 37 35 33 29 24 22 21 18 17 17 16 14 14 14 12 11 12 12 13 14 15 15 15 16 16 16 15 15 15 14 14 13 13 12 11 10 9 9 8 8
25 25 24 26 27 29 33 35 37 38 36 34 31 26 24 21 19 17 15 14 15 15 13 12 11 12 13 14 15 15 16 16 16 17 17 16 16 16 15 15 14 14 13 13 12 11 11 10 10
24 24 25 26 27 29 31 35 38 39 38 36 33 29 26 22 20 18 15 15 15 15 14 13 12 13 14 15 16 17 17 17 17 18 18 17 17 17 17 16 16 15 15 14 14 13 13 13 12
24 23 24 25 27 27 30 34 36 38 38 37 35 32 27 23 20 18 16 16 15 15 16 15 14 14 15 17 17 18 18 19 18 19 19 18 18 19 18 18 18 17 16 16 16 16 15 15 14
24 24 24 24 25 27 28 32 35 36 37 38 36 33 28 25 20 18 17 16 16 15 15 16 16 16 17 18 18 18 19 19 19 19 19 20 20 20 20 19 19 18 17 17 17 17 17 17 16
26 25 24 23 24 26 28 30 33 33 36 37 36 34 30 27 23 21 19 17 18 17 16 16 16 18 19 20 21 20 21 21 21 21 21 21 21 21 21 21 20 20 19 18 18 18 18 19 18
27 26 24 23 24 26 28 30 31 33 35 36 36 35 32 29 26 23 22 21 21 19 17 17 17 18 21 23 22 22 23 23 23 23 23 23 22 22 23 22 22 22 21 20 20 20 20 21 21
27 26 24 24 26 27 29 30 30 33 35 36 36 35 34 31 28 26 25 23 22 21 19 18 17 17 20 22 23 24 25 25 25 25 24 23 23 23 23 23 23 24 23 22 22 21 21 22 23
26 26 24 25 27 28 30 30 30 32 34 36 36 36 35 32 30 28 27 25 24 23 21 20 20 20 20 22 24 25 25 25 26 26 25 25 25 24 24 25 25 25 25 25 23 23 23 24 25
24 25 24 24 26 28 30 30 30 32 34 35 36 37 36 34 32 30 28 27 26 25 24 23 21 21 22 22 24 25 25 25 26 27 26 26 26 25 25 26 25 26 26 26 25 25 26 27 27
22 22 22 22 25 28 29 29 29 30 33 34 35 36 36 35 33 32 30 28 27 27 26 26 24 21 22 23 24 25 26 25 27 27 27 27 26 26 25 25 24 25 25 26 27 28 28 28 29
20 20 20 21 24 26 27 27 26 27 29 31 32 33 34 34 33 32 30 30 29 27 27 27 27 24 23 24 25 25 24 23 26 26 27 27 26 25 25 24 24 24 24 25 26 28 29 30 31
17 17 18 20 22 24 25 25 23 23 25 27 29 30 31 31 31 30 30 30 29 28 27 27 26 24 25 26 26 25 24 23 25 25 26 27 26 25 26 26 26 25 26 26 26 27 28 29 30
14 16 18 19 20 21 22 22 21 20 22 24 26 27 28 28 28 29 29 30 29 28 27 26 24 24 25 25 25 24 24 23 24 25 26 27 27 26 26 27 25 25 26 26 27 27 28 29 30
13 15 17 18 18 18 18 20 19 19 20 22 23 24 25 25 26 27 28 28 28 27 26 26 24 23 24 23 24 23 23 23 23 24 25 26 25 25 25 25 25 26 26 26 27 28 29 30 31
13 14 16 16 17 17 16 18 16 17 18 20 21 22 22 23 24 26 26 27 27 27 25 24 24 24 24 25 24 22 22 23 23 23 23 23 23 24 25 25 26 28 28 28 29 30 31 32 33
13 13 14 15 15 16 16 17 16 16 17 18 19 20 21 22 22 23 25 25 26 26 25 25 24 23 23 24 25 23 22 22 22 23 24 24 24 25 25 26 27 28 29 30 31 32 32 33 34
14 13 13 13 14 15 15 15 14 15 15 16 18 19 20 22 22 22 23 24 24 24 24 24 24 24 23 23 23 23 22 21 22 23 24 25 25 26 27 27 29 30 30 30 31 32 33 34 36
13 13 13 13 13 14 14 13 13 14 14 16 17 17 19 21 21 21 21 22 23 23 23 23 23 23 24 24 25 24 23 23 24 25 25 26 26 27 28 30 30 30 31 32 33 35 36 38 39
12 12 13 12 12 13 13 12 13 14 14 15 17 18 18 19 19 20 21 21 22 23 23 23 23 24 24 25 26 25 25 25 27 27 27 28 28 28 30 31 32 33 34 35 36 38 39 40 42
10 11 12 12 12 13 14 13 13 13 14 13 14 15 15 16 17 18 19 20 20 20 21 23 23 25 26 27 27 27 27 27 28 28 28 29 30 31 32 33 34 34 35 37 39 40 41 41 42
9 9 10 11 12 12 14 13 12 12 12 12 12 12 13 14 16 17 19 20 21 22 22 23 24 25 26 27 28 29 29 29 30 30 30 31 32 33 34 34 36 37 38 39 39 39 39 40 40
Wind_Direction
259 258 257 256 252 249 248 247 247 250 252 252 255 260 258 260 252 233 210 198 191 192 206 226 236 241 246 248 252 257 257 259 265 270 274 279 283 287 292 297 302 306 309 311 312 312 315 317 320
255 257 257 256 255 252 251 251 251 252 254 255 256 260 259 258 252 231 205 202 191 199 215 227 238 243 246 250 252 256 259 261 264 268 272 275 279 282 287 291 296 300 304 306 307 308 310 313 314
254 255 255 256 256 253 252 253 252 253 254 256 259 259 261 259 252 233 215 211 203 203 214 225 237 242 244 249 253 256 259 261 263 265 268 271 275 279 283 287 291 295 298 300 299 299 302 306 307
253 254 256 258 257 253 251 253 254 254 255 255 258 259 261 257 247 231 223 211 208 208 216 229 240 245 247 249 253 255 257 259 261 262 264 267 272 276 279 283 285 287 290 291 288 287 292 297 300
254 254 256 258 256 252 251 252 254 256 256 255 256 259 261 260 247 227 216 210 210 212 222 235 242 246 249 250 251 252 254 256 257 258 261 264 268 271 274 277 278 280 282 280 276 276 282 284 281
255 255 256 257 254 250 249 251 253 256 258 257 257 259 261 259 250 227 216 218 218 221 226 236 241 247 250 252 251 252 252 253 253 254 256 259 262 265 268 270 271 273 272 269 265 268 269 266 263
256 256 256 255 251 247 247 249 252 255 257 258 259 259 258 255 257 235 220 225 229 225 227 235 239 245 251 253 251 251 251 250 250 250 252 254 257 260 262 264 265 266 265 261 258 259 257 254 253
258 258 257 255 251 246 244 246 249 251 254 257 259 257 258 259 257 246 235 232 230 228 227 232 241 244 249 252 251 248 248 248 247 248 249 250 252 254 256 257 258 258 257 254 253 252 249 246 247
260 260 258 254 248 242 240 242 245 249 251 255 258 258 259 261 259 255 244 239 233 231 229 230 239 246 248 249 249 248 246 246 245 245 246 247 248 248 250 251 249 248 248 247 246 244 243 242 245
262 261 257 253 248 241 238 240 243 246 249 252 255 257 260 262 265 262 253 245 239 236 234 235 242 247 249 250 249 248 245 243 242 242 243 243 243 244 245 245 242 240 241 241 241 241 241 241 244
263 262 258 254 250 245 239 239 241 244 247 250 252 254 259 261 265 269 263 255 247 243 244 244 250 255 253 251 248 246 244 243 240 241 241 240 240 241 241 240 237 236 238 240 240 240 241 241 243
267 264 261 257 254 249 242 239 241 243 245 248 251 254 257 258 261 263 260 255 253 252 248 248 252 258 254 251 247 246 244 242 238 238 238 239 239 238 238 237 235 235 238 240 241 241 241 244 246
268 266 265 261 257 252 246 240 240 243 244 246 249 252 254 256 255 257 257 257 257 257 255 252 253 255 252 249 249 249 246 243 241 238 238 238 237 236 235 235 235 235 238 240 244 244 244 247 251
269 267 266 262 257 252 248 243 241 240 242 243 245 247 250 252 253 253 257 262 264 264 255 253 253 255 255 253 251 247 246 242 240 236 236 237 236 236 235 235 235 238 240 242 245 246 249 253 257
268 265 262 259 256 252 248 243 242 240 240 241 242 244 246 249 251 252 254 260 264 267 258 250 254 256 256 256 253 247 242 240 239 236 236 236 237 238 238 237 238 240 241 243 246 248 254 258 261
265 262 257 255 253 250 247 243 240 239 238 239 240 242 243 245 248 248 252 258 264 268 268 262 259 264 259 255 254 247 240 239 239 239 238 238 239 240 240 239 241 242 242 244 247 251 257 261 265
263 260 255 253 252 250 248 244 238 238 238 238 239 239 241 242 244 246 250 255 261 267 272 273 270 272 271 265 259 251 245 241 240 239 238 237 238 239 239 241 243 244 245 247 249 254 259 264 267
262 260 255 251 249 249 249 247 241 238 238 238 238 239 240 241 242 246 250 254 259 266 271 277 275 273 273 269 261 254 249 245 241 240 238 235 237 240 242 243 246 247 248 249 251 256 259 264 267
263 258 254 248 244 246 247 247 244 240 239 239 239 240 240 241 243 245 250 254 258 263 269 272 274 273 271 269 263 256 252 246 240 239 236 237 237 240 245 244 247 249 252 254 257 259 261 264 267
264 259 251 243 241 243 245 245 244 240 237 237 238 239 240 241 243 245 248 252 255 261 267 271 275 271 272 269 261 255 251 244 240 240 238 237 238 241 243 248 252 255 258 261 263 266 266 269 271
263 257 249 243 241 244 246 245 242 238 236 235 236 237 238 239 241 244 246 250 254 260 264 269 270 268 270 271 266 259 250 245 245 244 242 243 245 245 248 254 255 259 263 268 271 272 271 273 274
261 255 250 246 240 240 245 246 239 235 235 234 234 235 238 238 239 241 243 246 252 258 261 265 265 265 268 269 265 264 256 251 247 245 246 249 249 249 253 255 258 263 265 270 273 274 273 274 275
259 252 249 247 243 242 244 247 238 235 233 232 233 235 237 239 239 240 243 247 250 255 259 263 263 266 269 274 272 264 260 257 254 251 253 252 251 255 258 259 264 268 271 273 274 275 273 275 276
255 251 248 246 246 247 247 249 245 238 234 232 235 237 239 239 240 242 244 246 249 253 256 258 260 264 269 274 273 267 265 263 260 261 262 257 258 261 264 266 268 272 274 276 276 277 276 277 277
250 251 251 249 249 251 252 253 252 249 240 237 240 241 242 242 245 245 246 247 250 253 255 257 259 263 268 272 273 271 269 267 264 264 266 266 268 269 271 273 273 273 274 275 276 277 278 279 278
244 248 253 254 253 255 261 264 262 263 253 249 247 246 247 248 250 248 247 248 249 252 254 255 257 261 265 269 271 269 271 271 270 269 270 270 271 271 272 273 274 275 277 278 278 279 280 280 280
244 246 250 253 255 258 264 269 272 269 262 262 260 258 258 258 257 253 253 253 251 251 253 254 257 258 261 265 268 269 271 274 274 273 273 274 274 274 275 275 275 277 279 281 281 281 282 282 282
249 248 248 252 258 261 264 270 277 274 271 270 267 265 263 263 259 257 255 255 254 253 253 255 257 259 261 262 265 269 271 272 271 272 273 274 274 276 278 277 277 278 280 281 283 283 284 285 285
247 247 249 251 258 264 272 280 282 279 276 277 270 266 264 257 255 255 254 253 253 254 256 257 259 260 260 262 264 267 270 271 272 272 273 273 275 277 279 279 279 280 282 284 285 286 286 286 286
246 249 253 257 260 267 276 281 286 285 280 278 275 266 259 258 256 256 254 251 252 254 256 258 259 262 262 263 266 268 269 270 270 271 273 274 276 278 279 280 281 284 285 286 287 287 287 287 287